Regional Weather Roundup
Issued by NWS

Home | Current Version | Previous Version | Graphics & Text | Print | Product List | Glossary On
Versions: 1 2 3 4 5 6 7 8 9 10 11 12 13 14 15 16 17 18 19 20 21 22 23 24 25 26 27 28 29 30 31 32 33 34 35 36 37 38 39 40 41 42 43 44 45 46 47 48 49 50
000
ASUS43 KLSX 241157
RWRMO

WEATHER SUMMARY FOR MISSOURI
NATIONAL WEATHER SERVICE SPRINGFIELD MO
600 AM CST FRI NOV 24 2017

NOTE: "FAIR" INDICATES FEW OR NO CLOUDS BELOW 12,000 FEET WITH NO
       SIGNIFICANT WEATHER AND/OR OBSTRUCTIONS TO VISIBILITY.
       CURRENT SKY AND/OR WEATHER CONDITIONS ARE NOT AVAILABLE FOR
       CHILLICOTHE AND FARMINGTON.

MOZ001>031-035>038-043-044-053-054-241300-
...NORTHERN AND WESTERN MISSOURI...

CITY           SKY/WX    TMP DP  RH WIND       PRES   REMARKS
KANSAS CTY INT CLEAR     52  34  50 SW14      29.72F
6HR MIN TEMP:  50; 6HR MAX TEMP:  54;

LEE`S SUMMIT   PTCLDY    50  33  52 SW15      29.76F
6HR MIN TEMP:  48; 6HR MAX TEMP:  52;

ST JOSEPH      PTCLDY    49  35  58 S8        29.69F
6HR MIN TEMP:  47; 6HR MAX TEMP:  51;

CHILLICOTHE      N/A     48  34  58 S9        29.74F
6HR MIN TEMP:  46; 6HR MAX TEMP:  50;


$$
MOZ066>068-077>081-088>096-101>105-241300-
...SOUTHWEST MISSOURI...

CITY           SKY/WX    TMP DP  RH WIND       PRES   REMARKS
SPRINGFIELD    CLEAR     42  31  64 S9        29.87F
6HR MIN TEMP:  38; 6HR MAX TEMP:  43;

JOPLIN         PTCLDY    50  31  48 S13       29.86F
6HR MIN TEMP:  49; 6HR MAX TEMP:  52;


$$
MOZ032>034-039>042-045>050-055>058-069>072-241300-
...CENTRAL MISSOURI...

CITY           SKY/WX    TMP DP  RH WIND       PRES   REMARKS
COLUMBIA       NOT AVBL
JEFFERSON CITY PTCLDY    41  32  70 E6        29.84F
6HR MIN TEMP:  33; 6HR MAX TEMP:  42;

ROLLA          PTCLDY    45  31  58 SW13      29.87S
6HR MIN TEMP:  36; 6HR MAX TEMP:  48;

SEDALIA        CLEAR     51  33  50 S15       29.81F
6HR MIN TEMP:  47; 6HR MAX TEMP:  53;

WARRENSBURG    CLOUDY    45  32  61 S7        29.79F

$$
MOZ051-052-059>065-241300-
...EAST CENTRAL MISSOURI...

CITY           SKY/WX    TMP DP  RH WIND       PRES   REMARKS
ST LOUIS INTL  MOCLDY    44  31  60 CALM      29.86F
6HR MIN TEMP:  35; 6HR MAX TEMP:  44;


$$
MOZ072>076-082>087-097>100-106>115-241300-
...SOUTH CENTRAL AND SOUTHEAST MISSOURI...

CITY           SKY/WX    TMP DP  RH WIND       PRES   REMARKS
CAPE GIRARDEAU CLOUDY    30  26  85 CALM      29.95S
6HR MIN TEMP:  30; 6HR MAX TEMP:  36;

POPLAR BLUFF   CLOUDY    29  27  92 CALM      29.95S
6HR MIN TEMP:  28; 6HR MAX TEMP:  32;

WEST PLAINS    PTCLDY    39  29  67 W6        29.91F
6HR MIN TEMP:  36; 6HR MAX TEMP:  44;


$$


USA.gov is the U.S. government's official web portal to all federal, state and local government web resources and services.